SCP
0 0 -0 -0 -0 -0 -0 0 0 0 0 0 0 0 0 0 0 0 0 0 0 0 0 0 0 0 0 0 0 0 0 0
0 0 -0 -0 -0 -0 -0 0 0 0 0 0 0 0 0 0 0 0 0 0 0 0 0 0 0 0 0 0 0 0 0 0
1 1 1 0 0 0 -0 0 0 0 0 0 0 0 0 0 0 0 0 0 0 0 0 0 0 0 0 0 0 0 0 0
1 1 1 1 0 0 0 -0 -0 0 0 0 0 0 0 0 0 0 0 0 0 0 0 0 0 0 0 0 0 0 0 0
1 1 2 2 1 1 0 0 0 0 0 0 0 0 0 0 0 0 0 0 0 0 0 0 0 0 0 0 0 0 0 0
1 1 1 2 1 1 0 0 0 0 0 0 0 0 0 0 0 0 0 0 0 0 0 0 0 0 0 0 0 0 0 0
1 1 1 2 1 1 0 0 0 0 0 0 0 0 0 0 0 0 0 0 0 0 0 0 0 0 0 0 0 0 0 0
1 2 1 1 2 2 1 0 0 0 0 0 0 0 0 0 0 0 0 0 0 0 0 0 0 0 0 0 0 0 0 0
0 2 2 0 1 1 0 0 0 0 0 0 0 0 0 0 0 0 0 0 0 0 0 0 0 0 0 0 0 0 0 0
0 1 1 1 1 1 1 0 0 0 0 0 0 0 0 0 0 0 0 0 0 0 0 0 0 0 0 0 0 0 0 0
0 0 1 1 1 1 0 0 0 0 0 0 0 0 0 0 0 0 0 0 0 0 0 0 0 0 0 0 0 0 0 0
0 0 0 0 0 0 0 0 0 0 0 0 0 0 0 0 0 0 0 0 0 0 0 0 0 0 0 0 0 0 0 0
0 0 0 0 0 0 0 0 0 0 0 0 0 0 0 0 0 0 0 0 0 0 0 0 0 0 0 0 0 0 0 0
0 0 0 0 0 0 0 0 0 0 0 0 0 0 0 0 0 0 0 0 0 0 0 0 0 0 0 0 0 0 0 0
-0 0 0 0 0 0 0 0 0 0 0 0 0 0 0 0 0 0 0 0 0 0 0 0 0 0 0 0 0 -0 -0 -0
-0 0 0 0 0 0 0 0 0 0 0 0 0 0 0 0 0 0 0 0 0 0 0 0 0 0 0 0 0 0 0 0
-0 0 0 0 0 0 0 0 0 0 0 0 0 0 0 0 0 0 0 0 0 0 0 0 0 0 0 -0 -0 0 0 0
-0 0 0 0 0 0 0 0 0 0 0 0 0 0 0 0 0 0 0 0 0 0 0 0 0 0 0 0 0 0 0 0
0 0 0 0 0 0 0 0 0 0 0 0 0 0 0 0 0 0 0 0 0 0 0 0 0 0 0 0 0 0 0 0
0 0 0 0 0 0 0 0 0 0 0 0 0 0 -0 0 0 0 0 0 0 0 0 0 0 0 0 0 0 0 0 0
Wind_Speed_500mb
37 48 59 68 62 62 61 58 53 50 47 42 37 33 30 28 25 21 17 14 11 9 7 8 5 5 6 8 9 12 15 18
32 45 57 65 63 64 62 59 55 53 49 44 40 37 33 28 24 21 19 16 15 12 10 9 11 12 10 10 12 15 20 23
30 43 54 57 65 64 61 58 56 53 49 45 41 37 32 29 25 22 19 18 14 15 13 12 12 14 13 14 15 18 24 32
22 36 45 53 56 59 61 62 60 56 50 45 41 37 33 31 27 23 20 19 17 16 15 14 15 13 21 28 28 30 34 38
30 37 43 53 60 62 59 55 55 61 58 50 43 39 34 32 28 23 21 19 17 16 16 18 19 18 26 22 26 35 42 45
38 31 41 59 59 60 62 62 55 53 51 48 44 40 36 32 28 25 22 18 17 16 16 16 17 17 25 26 30 38 40 42
35 33 48 56 62 68 74 66 59 53 48 47 44 41 37 33 29 26 21 18 15 15 15 16 17 16 24 33 39 38 37 41
35 23 38 50 60 74 81 75 68 64 54 46 43 41 37 32 27 25 23 17 14 13 14 15 19 21 26 31 40 40 28 29
28 14 30 46 60 74 74 76 73 64 54 47 44 39 34 29 27 22 20 18 14 14 15 18 22 24 29 29 26 20 20 23
25 16 31 44 54 65 69 75 73 61 57 50 44 38 31 29 27 22 21 18 14 15 18 17 20 30 13 16 24 24 25 26
20 15 20 31 44 58 68 67 71 64 58 51 43 36 32 30 25 23 20 16 17 15 15 15 9 8 12 25 30 28 22 25
22 16 20 36 43 50 60 63 66 65 60 51 43 38 35 27 23 21 20 14 16 8 16 16 9 5 3 10 20 27 26 28
25 18 26 35 44 53 56 66 70 64 57 47 43 39 32 30 26 25 13 17 16 6 4 7 3 1 17 29 28 28 26 18
29 28 33 41 51 55 62 76 70 64 54 47 41 35 33 30 26 28 18 9 15 16 13 9 8 17 22 26 29 17 18 14
43 36 39 46 58 55 64 66 66 59 49 45 40 33 32 31 27 24 23 19 14 11 10 11 10 16 24 30 15 12 17 21
59 47 50 59 61 61 61 70 62 54 46 43 39 33 33 30 26 30 23 7 11 13 12 8 13 24 25 29 13 18 25 15
48 52 55 60 63 60 68 65 58 50 45 42 37 34 32 29 23 21 24 15 19 12 7 10 13 26 21 18 18 17 22 21
41 57 60 65 65 74 68 60 54 46 42 42 39 36 32 28 23 19 16 16 8 5 9 1 9 21 18 17 18 19 21 22
51 57 67 73 74 70 62 58 49 43 43 46 39 34 30 26 21 18 15 9 7 4 3 12 10 1 14 16 18 19 21 22
51 61 72 74 75 65 59 52 45 43 43 44 38 33 28 26 21 19 14 11 5 4 5 7 18 13 14 15 17 18 20 21
Wind_Direction_500mb
198 188 183 186 190 188 187 183 184 180 177 179 181 182 184 183 181 181 182 184 194 192 221 232 233 235 222 237 259 280 290 295
210 196 186 186 190 190 188 184 184 181 177 179 182 184 186 186 185 188 189 200 211 218 225 236 234 236 245 256 268 280 290 296
212 205 195 193 190 189 190 186 184 181 177 179 184 185 186 185 185 192 198 208 211 218 229 242 241 241 260 255 268 281 289 293
203 213 203 196 194 193 192 187 183 181 178 180 182 183 185 185 187 196 201 210 211 215 228 237 240 247 257 271 276 291 298 297
296 214 198 196 194 193 193 192 188 187 179 177 180 181 184 188 189 194 205 206 210 221 232 239 242 248 269 273 286 297 303 300
313 234 208 200 193 196 193 191 192 187 181 178 179 180 184 190 188 197 203 207 215 231 245 253 242 251 268 288 293 298 303 306
314 253 209 205 194 191 188 191 189 190 189 183 180 181 184 189 191 195 209 213 220 233 243 249 241 258 279 291 296 297 301 304
316 261 212 212 199 192 196 190 189 192 187 186 182 182 185 188 191 199 209 213 221 228 243 241 250 264 274 288 296 303 305 308
306 238 222 217 202 194 185 191 188 188 184 183 183 183 181 184 188 198 200 209 212 233 230 248 264 275 292 296 309 318 308 312
321 275 226 221 215 198 185 189 189 185 179 181 180 177 175 180 184 188 197 200 213 218 238 264 285 289 240 307 332 330 319 321
305 260 227 219 205 197 192 188 186 178 178 177 174 172 171 172 176 186 186 195 206 228 251 280 324 324 305 338 338 341 335 345
313 265 240 214 207 198 190 186 178 177 175 171 169 166 168 168 171 179 176 189 216 212 281 298 234 287 326 4 338 326 321 324
311 260 243 219 208 190 191 181 176 176 171 167 166 168 166 167 165 175 178 197 202 228 314 3 316 144 287 312 319 320 318 311
298 283 236 210 193 183 188 182 172 173 167 167 167 168 170 167 179 190 198 198 221 239 252 214 276 307 317 320 330 355 34 41
316 269 225 203 177 182 184 174 173 170 168 168 169 168 167 173 173 169 190 219 232 232 225 247 290 328 334 334 354 39 39 15
312 256 216 184 174 182 177 170 171 168 168 166 167 166 167 173 176 180 174 198 168 195 231 275 329 354 14 25 28 349 325 309
302 235 196 180 175 174 170 171 170 165 164 165 163 162 166 168 168 176 168 167 180 170 264 315 333 352 354 1 9 346 334 333
272 217 185 171 169 167 167 168 165 163 163 165 160 162 164 165 170 168 161 170 184 251 229 359 329 317 309 332 329 324 328 331
229 203 177 166 162 160 164 163 160 160 164 161 162 162 163 166 166 160 174 167 182 165 337 343 330 82 335 329 329 329 329 329
214 188 167 162 158 156 158 157 155 162 161 160 159 161 162 163 154 156 157 154 178 256 277 307 19 11 335 334 331 329 328 330
Wind_Speed_850mb
37 48 59 68 62 62 61 58 53 50 47 42 37 33 30 28 25 21 17 14 11 9 7 8 5 5 6 8 9 12 15 18
32 45 57 65 63 64 62 59 55 53 49 44 40 37 33 28 24 21 19 16 15 12 10 9 11 12 10 10 12 15 20 23
30 43 54 57 65 64 61 58 56 53 49 45 41 37 32 29 25 22 19 18 14 15 13 12 12 14 13 14 15 18 24 32
22 36 45 53 56 59 61 62 60 56 50 45 41 37 33 31 27 23 20 19 17 16 15 14 15 13 21 28 28 30 34 38
30 37 43 53 60 62 59 55 55 61 58 50 43 39 34 32 28 23 21 19 17 16 16 18 19 18 26 22 26 35 42 45
38 31 41 59 59 60 62 62 55 53 51 48 44 40 36 32 28 25 22 18 17 16 16 16 17 17 25 26 30 38 40 42
35 33 48 56 62 68 74 66 59 53 48 47 44 41 37 33 29 26 21 18 15 15 15 16 17 16 24 33 39 38 37 41
35 23 38 50 60 74 81 75 68 64 54 46 43 41 37 32 27 25 23 17 14 13 14 15 19 21 26 31 40 40 28 29
28 14 30 46 60 74 74 76 73 64 54 47 44 39 34 29 27 22 20 18 14 14 15 18 22 24 29 29 26 20 20 23
25 16 31 44 54 65 69 75 73 61 57 50 44 38 31 29 27 22 21 18 14 15 18 17 20 30 13 16 24 24 25 26
20 15 20 31 44 58 68 67 71 64 58 51 43 36 32 30 25 23 20 16 17 15 15 15 9 8 12 25 30 28 22 25
22 16 20 36 43 50 60 63 66 65 60 51 43 38 35 27 23 21 20 14 16 8 16 16 9 5 3 10 20 27 26 28
25 18 26 35 44 53 56 66 70 64 57 47 43 39 32 30 26 25 13 17 16 6 4 7 3 1 17 29 28 28 26 18
29 28 33 41 51 55 62 76 70 64 54 47 41 35 33 30 26 28 18 9 15 16 13 9 8 17 22 26 29 17 18 14
43 36 39 46 58 55 64 66 66 59 49 45 40 33 32 31 27 24 23 19 14 11 10 11 10 16 24 30 15 12 17 21
59 47 50 59 61 61 61 70 62 54 46 43 39 33 33 30 26 30 23 7 11 13 12 8 13 24 25 29 13 18 25 15
48 52 55 60 63 60 68 65 58 50 45 42 37 34 32 29 23 21 24 15 19 12 7 10 13 26 21 18 18 17 22 21
41 57 60 65 65 74 68 60 54 46 42 42 39 36 32 28 23 19 16 16 8 5 9 1 9 21 18 17 18 19 21 22
51 57 67 73 74 70 62 58 49 43 43 46 39 34 30 26 21 18 15 9 7 4 3 12 10 1 14 16 18 19 21 22
51 61 72 74 75 65 59 52 45 43 43 44 38 33 28 26 21 19 14 11 5 4 5 7 18 13 14 15 17 18 20 21
Wind_Direction_850mb
198 188 183 186 190 188 187 183 184 180 177 179 181 182 184 183 181 181 182 184 194 192 221 232 233 235 222 237 259 280 290 295
210 196 186 186 190 190 188 184 184 181 177 179 182 184 186 186 185 188 189 200 211 218 225 236 234 236 245 256 268 280 290 296
212 205 195 193 190 189 190 186 184 181 177 179 184 185 186 185 185 192 198 208 211 218 229 242 241 241 260 255 268 281 289 293
203 213 203 196 194 193 192 187 183 181 178 180 182 183 185 185 187 196 201 210 211 215 228 237 240 247 257 271 276 291 298 297
296 214 198 196 194 193 193 192 188 187 179 177 180 181 184 188 189 194 205 206 210 221 232 239 242 248 269 273 286 297 303 300
313 234 208 200 193 196 193 191 192 187 181 178 179 180 184 190 188 197 203 207 215 231 245 253 242 251 268 288 293 298 303 306
314 253 209 205 194 191 188 191 189 190 189 183 180 181 184 189 191 195 209 213 220 233 243 249 241 258 279 291 296 297 301 304
316 261 212 212 199 192 196 190 189 192 187 186 182 182 185 188 191 199 209 213 221 228 243 241 250 264 274 288 296 303 305 308
306 238 222 217 202 194 185 191 188 188 184 183 183 183 181 184 188 198 200 209 212 233 230 248 264 275 292 296 309 318 308 312
321 275 226 221 215 198 185 189 189 185 179 181 180 177 175 180 184 188 197 200 213 218 238 264 285 289 240 307 332 330 319 321
305 260 227 219 205 197 192 188 186 178 178 177 174 172 171 172 176 186 186 195 206 228 251 280 324 324 305 338 338 341 335 345
313 265 240 214 207 198 190 186 178 177 175 171 169 166 168 168 171 179 176 189 216 212 281 298 234 287 326 4 338 326 321 324
311 260 243 219 208 190 191 181 176 176 171 167 166 168 166 167 165 175 178 197 202 228 314 3 316 144 287 312 319 320 318 311
298 283 236 210 193 183 188 182 172 173 167 167 167 168 170 167 179 190 198 198 221 239 252 214 276 307 317 320 330 355 34 41
316 269 225 203 177 182 184 174 173 170 168 168 169 168 167 173 173 169 190 219 232 232 225 247 290 328 334 334 354 39 39 15
312 256 216 184 174 182 177 170 171 168 168 166 167 166 167 173 176 180 174 198 168 195 231 275 329 354 14 25 28 349 325 309
302 235 196 180 175 174 170 171 170 165 164 165 163 162 166 168 168 176 168 167 180 170 264 315 333 352 354 1 9 346 334 333
272 217 185 171 169 167 167 168 165 163 163 165 160 162 164 165 170 168 161 170 184 251 229 359 329 317 309 332 329 324 328 331
229 203 177 166 162 160 164 163 160 160 164 161 162 162 163 166 166 160 174 167 182 165 337 343 330 82 335 329 329 329 329 329
214 188 167 162 158 156 158 157 155 162 161 160 159 161 162 163 154 156 157 154 178 256 277 307 19 11 335 334 331 329 328 330